| time (UTC) | temp F | wind direction | speed knots | gust knots | rain 1hr in | rain 24hr in | rain mn in | humidity % | barometer mb |
| 20260502224542 | 64 | 46 | 1.7 | 9.6 | 0.00 | 0.00 | 0.00 | 89 | 1016.1 |
| 20260502223039 | 64 | 30 | 3.5 | 11.3 | 0.00 | 0.00 | 0.00 | 89 | 1016.3 |
| 20260502221542 | 64 | 111 | 4.3 | 11.3 | 0.00 | 0.00 | 0.00 | 89 | 1016.1 |
| 20260502220052 | 64 | 78 | 2.6 | 8.7 | 0.00 | 0.00 | 0.00 | 89 | 1016.4 |
| 20260502214536 | 64 | 59 | 3.5 | 8.7 | 0.00 | 0.00 | 0.00 | 89 | 1016.2 |
| 20260502213043 | 63 | 51 | 1.7 | 5.2 | 0.00 | 0.00 | 0.00 | 90 | 1016.8 |
| 20260502211544 | 63 | 54 | 2.6 | 7.8 | 0.00 | 0.00 | 0.00 | 91 | 1016.7 |
| 20260502210041 | 63 | 44 | 1.7 | 6.1 | 0.00 | 0.00 | 0.00 | 90 | 1016.6 |
| 20260502204538 | 63 | 43 | 2.6 | 4.3 | 0.00 | 0.00 | 0.00 | 89 | 1016.6 |
| 20260502203047 | 64 | 32 | 4.3 | 10.4 | 0.00 | 0.00 | 0.00 | 89 | 1016.4 |
| 20260502201540 | 64 | 82 | 4.3 | 10.4 | 0.00 | 0.00 | 0.00 | 89 | 1016.0 |
| 20260502200041 | 64 | 55 | 5.2 | 12.2 | 0.00 | 0.00 | 0.00 | 89 | 1016.0 |
| 20260502194548 | 64 | 132 | 6.1 | 10.4 | 0.00 | 0.00 | 0.00 | 89 | 1015.7 |
| 20260502193039 | 64 | 87 | 4.3 | 7.8 | 0.00 | 0.00 | 0.00 | 89 | 1015.9 |
| 20260502191542 | 65 | 62 | 3.5 | 9.6 | 0.00 | 0.00 | 0.00 | 88 | 1016.0 |
| 20260502190037 | 65 | 74 | 2.6 | 10.4 | 0.00 | 0.00 | 0.00 | 88 | 1015.8 |
| 20260502184543 | 65 | 110 | 3.5 | 9.6 | 0.00 | 0.00 | 0.00 | 88 | 1015.7 |
| 20260502183050 | 65 | 50 | 5.2 | 11.3 | 0.00 | 0.00 | 0.00 | 88 | 1015.7 |
| 20260502181538 | 65 | 48 | 6.1 | 11.3 | 0.00 | 0.00 | 0.00 | 87 | 1015.8 |
| 20260502163100 | 67 | 130 | 3.5 | 11.3 | 0.00 | 0.00 | 0.00 | 86 | 1016.3 |
| 20260502161542 | 67 | 161 | 5.2 | 8.7 | 0.00 | 0.00 | 0.00 | 85 | 1016.5 |
| 20260502151539 | 67 | 92 | 5.2 | 8.7 | 0.00 | 0.00 | 0.00 | 84 | 1017.1 |
| 20260502123045 | 69 | 113 | 7.8 | 14.8 | 0.00 | 0.00 | 0.00 | 80 | 1018.7 |
| 20260502121542 | 69 | 22 | 5.2 | 12.2 | 0.00 | 0.00 | 0.00 | 79 | 1018.7 |
| 20260502114546 | 68 | 67 | 5.2 | 13.9 | 0.00 | 0.00 | 0.00 | 82 | 1019.4 |
| 20260502113039 | 68 | 50 | 6.1 | 10.4 | 0.00 | 0.00 | 0.00 | 81 | 1019.3 |
| 20260502111547 | 68 | 101 | 7.0 | 11.3 | 0.00 | 0.00 | 0.00 | 83 | 1019.5 |
| 20260502110042 | 68 | 98 | 6.1 | 11.3 | 0.00 | 0.00 | 0.00 | 83 | 1019.6 |
| 20260502104541 | 67 | 60 | 7.0 | 12.2 | 0.00 | 0.00 | 0.00 | 84 | 1019.7 |
| 20260502103039 | 68 | 78 | 6.1 | 12.2 | 0.00 | 0.00 | 0.00 | 82 | 1019.9 |
| 20260502101537 | 68 | 93 | 6.1 | 11.3 | 0.00 | 0.00 | 0.00 | 82 | 1020.1 |
| 20260502070049 | 66 | 23 | 4.3 | 9.6 | 0.00 | 0.00 | 0.00 | 85 | 1020.3 |
| 20260502064545 | 66 | 76 | 5.2 | 10.4 | 0.00 | 0.00 | 0.00 | 84 | 1020.2 |
| 20260502063040 | 65 | 31 | 0.9 | 7.8 | 0.00 | 0.00 | 0.00 | 86 | 1020.2 |
| 20260502061543 | 64 | 57 | 1.7 | 4.3 | 0.00 | 0.00 | 0.00 | 87 | 1020.1 |
| 20260502060040 | 64 | 0 | 0.0 | 0.9 | 0.00 | 0.00 | 0.00 | 89 | 1020.1 |
| 20260502054540 | 64 | 0 | 0.0 | 0.9 | 0.00 | 0.00 | 0.00 | 90 | 1019.9 |
| 20260502053038 | 63 | 0 | 0.0 | 0.0 | 0.00 | 0.00 | 0.00 | 90 | 1020.0 |
| 20260502051537 | 63 | 0 | 0.0 | 0.0 | 0.00 | 0.00 | 0.00 | 90 | 1019.9 |
| 20260502050036 | 63 | 0 | 0.0 | 0.0 | 0.00 | 0.00 | 0.00 | 90 | 1019.9 |
| 20260502044539 | 63 | 0 | 0.0 | 0.0 | 0.00 | 0.00 | 0.00 | 90 | 1019.8 |
| 20260502043047 | 63 | 13 | 0.9 | 2.6 | 0.00 | 0.00 | 0.00 | 89 | 1019.8 |
| 20260502041546 | 63 | 25 | 0.9 | 3.5 | 0.00 | 0.00 | 0.00 | 89 | 1019.8 |
| 20260502040038 | 63 | 19 | 1.7 | 4.3 | 0.00 | 0.00 | 0.00 | 89 | 1019.9 |
| 20260502034539 | 63 | 317 | 2.6 | 5.2 | 0.00 | 0.00 | 0.00 | 90 | 1019.9 |
| 20260502033042 | 63 | 36 | 3.5 | 7.0 | 0.00 | 0.00 | 0.00 | 90 | 1020.1 |
| 20260502031540 | 63 | 360 | 2.6 | 5.2 | 0.00 | 0.00 | 0.00 | 90 | 1020.1 |
| 20260502030040 | 63 | 52 | 1.7 | 3.5 | 0.00 | 0.00 | 0.00 | 88 | 1020.1 |
| 20260502024541 | 64 | 52 | 1.7 | 5.2 | 0.00 | 0.00 | 0.00 | 87 | 1020.2 |
| 20260502023043 | 64 | 101 | 1.7 | 8.7 | 0.00 | 0.00 | 0.00 | 86 | 1020.1 |
| 20260502021545 | 64 | 96 | 3.5 | 9.6 | 0.00 | 0.00 | 0.00 | 86 | 1020.0 |
| 20260502020043 | 64 | 90 | 2.6 | 8.7 | 0.00 | 0.00 | 0.00 | 88 | 1020.3 |
| 20260502014551 | 64 | 64 | 3.5 | 7.0 | 0.00 | 0.00 | 0.00 | 88 | 1020.1 |
| 20260502013038 | 63 | 77 | 0.9 | 3.5 | 0.00 | 0.00 | 0.00 | 90 | 1020.5 |
| 20260502011544 | 62 | 0 | 0.0 | 0.0 | 0.00 | 0.00 | 0.00 | 90 | 1020.6 |
| 20260502010040 | 62 | 0 | 0.0 | 0.0 | 0.00 | 0.00 | 0.00 | 90 | 1020.7 |
| 20260502004539 | 63 | 0 | 0.0 | 0.0 | 0.00 | 0.00 | 0.00 | 90 | 1020.8 |
| 20260502003037 | 63 | 0 | 0.0 | 0.0 | 0.00 | 0.00 | 0.00 | 90 | 1021.0 |
| 20260502001536 | 63 | 288 | 0.0 | 1.7 | 0.00 | 0.00 | 0.00 | 89 | 1021.4 |
| 20260502000052 | 64 | 0 | 0.0 | 0.9 | 0.00 | 0.00 | 0.00 | 88 | 1021.6 |
| 20260501234541 | 65 | 292 | 0.0 | 7.8 | 0.00 | 0.02 | 0.00 | 86 | 1021.6 |
| 20260501233038 | 65 | 48 | 2.6 | 10.4 | 0.00 | 0.02 | 0.00 | 85 | 1021.6 |
| 20260501231542 | 65 | 89 | 4.3 | 9.6 | 0.00 | 0.02 | 0.00 | 86 | 1021.7 |
| 20260501230037 | 65 | 62 | 6.1 | 12.2 | 0.00 | 0.02 | 0.00 | 87 | 1021.7 |